Regional Weather Roundup
Issued by NWS

Home | Current Version | Previous Version | Graphics & Text | Print | Product List | Glossary Off
Versions: 1 2 3 4 5 6 7 8 9 10 11 12 13 14 15 16 17 18 19 20 21 22 23 24 25 26 27 28 29 30 31 32 33 34 35 36 37 38 39 40 41 42 43 44 45 46 47 48 49 50

000
ASUS44 KMEG 280410
RWRTN
TENNESSEE HOURLY STATE WEATHER ROUNDUP
NATIONAL WEATHER SERVICE MEMPHIS TN
1000 PM CST TUE JAN 27 2015

TNZ002-004-019-021-049-052-054-088>092-280500-
WEST TENNESSEE

CITY           SKY/WX    TMP DP  RH WIND       PRES   REMARKS
MEMPHIS INTL   CLEAR     43  32  65 E8        30.20S
NWS MEMPHIS      N/A     40 N/A N/A MISG        N/A
JACKSON        FAIR      33  28  81 E5        30.23R WCI  29
DYERSBURG      CLEAR     37  19  48 CALM      30.25R
UNION CITY     CLEAR     34  28  80 E6        30.23R WCI  29
PARIS          CLEAR     27  23  86 CALM      30.24R
LEXINGTON      CLEAR     30  27  86 CALM      30.21S
SAVANNAH         N/A     32  27  80 CALM      30.24R
$$

TNZ008-025-027-028-033-062-065-066-280500-
NORTH MIDDLE TENNESSEE

CITY           SKY/WX    TMP DP  RH WIND       PRES   REMARKS
NASHVILLE      CLOUDY    35  30  82 N9        30.23S WCI  28
CLARKSVILLE    CLOUDY    34  29  82 N7        30.24S WCI  28
SMYRNA         CLOUDY    35  31  86 N7        30.24S WCI  29
COOKEVILLE     CLOUDY    32  27  80 VRB3      30.18R
CROSSVILLE     CLOUDY    30  25  81 N8        30.15R WCI  22
$$

TNZ061-075-076-078-094-096-097-280500-
SOUTH MIDDLE TENNESSEE

CITY           SKY/WX    TMP DP  RH WIND       PRES   REMARKS
FAYETTEVILLE   CLOUDY    34  27  75 N16G24    30.18R WCI  23
TULLAHOMA        N/A     34  27  75 N7        30.18R WCI  28
WINCHESTER     CLOUDY    34  28  80 N8        30.19R WCI  27
MCMINNVILLE    CLOUDY    34  27  75 N6        30.19R WCI  29
COLUMBIA       MOCLDY    36  30  80 N8        30.19S WCI  29
SHELBYVILLE    CLOUDY    34  30  86 N7        30.21R WCI  28
$$

TNZ017-018-042-046-047-280500-
NORTHEAST TENNESSEE

CITY           SKY/WX    TMP DP  RH WIND       PRES   REMARKS
TRI CITIES     PTCLDY    28  18  66 NW10      30.12R WCI  19
ELIZABETHTON   CLEAR     25  18  74 VRB3      30.10R
$$

TNZ012-013-036-069-073-074-280500-
CENTRAL EAST TENNESSEE

CITY           SKY/WX    TMP DP  RH WIND       PRES   REMARKS
KNOXVILLE      CLOUDY    33  24  69 N10       30.17R WCI  25
OAK RIDGE      CLOUDY    34  25  69 VRB3      30.19R
GATLINBURG     CLOUDY    30  21  69 VRB6      30.17R WCI  24
MORRISTOWN     CLOUDY    30  19  64 NW8       30.16R WCI  23
$$

TNZ083-085-099-280500-
SOUTHEAST TENNESSEE

CITY           SKY/WX    TMP DP  RH WIND       PRES   REMARKS
CHATTANOOGA    CLOUDY    38  29  70 NW14G23   30.18R WCI  30
$$

SKY/WX REPORTED AS FAIR MEANS FEW OR NO CLOUDS BELOW
12 THOUSAND FEET.




USA.gov is the U.S. government's official web portal to all federal, state and local government web resources and services.